Showing default

SYMPHONIE 1, 7578

Orbit data source: Space-Track

SYMPHONIE 1, 7578 is an FR and DE payload satellite in GEO that was launched on Thu, 19 Dec 1974 UTC via a DELTA 2914 launch vehicle from the Air Force Eastern Test Range (AFETR). Payload-class satellites include a variety of spacecraft equipped with specific instruments for various scientific and technological missions. These include communications satellites like Starlink; space stations such as the ISS; scientific satellites like the Hubble; Earth observation satellites from companies like Planet Labs, Umbra, and HawkEye 360; GPS; miniature CubeSats for education and research; and military/defense satellites.

Not visible in the next 10 days
Identifier
7578, 1974-101A
Orbit
GEO
Country
Flag of FRFR / FGER
Flag of DEDE / FGER
Related business
Manufacturer
AELM/CIFAS
Mission
Spacecraft
Bus & Motor
SYMPHONIE, S400
Mass
400 kg wet, 240 kg dry
Launch date (UTC)
1974-12-19 (52 years ago)
Launch vehicle
DELTA 2914
Launch site
Air Force Eastern Test Range (AFETR)
Object type
Payload
Rocket body
Debris
Shape & HBR
HEX CYL + 2 PAN, 1.1 m
Radar Cross Section
Large (>1 m²)

Expand to show TLE details & history
Last TLE update: 12 hours ago

TLE from 12 hours ago
0 SYMPHONIE 1
1 07578U 74101A   26254.75742972 -.00000003  00000-0  00000-0 0  9996
2 07578   4.3598 275.9404 0002824 324.8325 205.5231  0.99963207118061
Epoch: 2026-09-11T18:10Z
TLE epoch observation values (Epoch: 2026-09-11T18:10:41.927Z)
Latitude
0.70704°
Longitude
-177.12726°
Altitude
35,883.434 km
Speed
3.071 km/s
True Right ascension
05h 45m 17s
True Declination
0° 42' 23"
Sunlit
Object was in daylight at epoch
Visualization orbit readout
Latitude
Unknown
Longitude
Unknown
Altitude
Unknown
Speed
Unknown
Apparent Right ascension
Unknown
Apparent Declination
Unknown
Sunlit
N/A
Visualization observer readout
Local Sidereal Time
22:08:10
Azimuth
Unknown
Elevation
Unknown
Doppler factor
Unknown
Orbital elements
Apogee altitude
35,886.314 km
Perigee altitude
35,862.45 km
Semi-major axis
42,252.519 km
Eccentricity
0.00028
Inclination
4.3598°
RAAN
275.9404°
Arg. of periapsis
324.8325°
True anomaly
205.50916°
Mean anomaly
205.5231°
Eccentric anomaly
205.51613°
Mean motion
0.2499 °/min
Orbital period
1,440.58 mins
BSTAR
0
Loading maneuver chart data...
Computing Atmospheric mass density...
Loading historical data...
Loading historical data...
Loading historical data...
Loading historical data...
Loading historical data...
Loading historical data...
Loading historical data...

Documentation

Showing up to 5 results
|